TimeEDT,TemperatureF,Dew PointF,Humidity,Sea Level PressureIn,VisibilityMPH,Wind Direction,Wind SpeedMPH,Gust SpeedMPH,PrecipitationIn,Events,Conditions,WindDirDegrees,DateUTC
12:15 AM,65.3,65.3,100,29.99,10.0,Calm,Calm,-,N/A,,Clear,0,2013-06-12 04:15:00
12:35 AM,65.5,65.5,100,29.99,10.0,Calm,Calm,-,N/A,,Clear,0,2013-06-12 04:35:00
12:55 AM,64.0,64.0,100,29.99,7.0,Calm,Calm,-,N/A,,Clear,0,2013-06-12 04:55:00
1:15 AM,63.7,63.7,100,29.99,7.0,Calm,Calm,-,N/A,,Clear,0,2013-06-12 05:15:00
1:55 AM,63.5,63.5,100,29.98,7.0,Calm,Calm,-,N/A,,Clear,0,2013-06-12 05:55:00
2:15 AM,63.0,63.0,100,29.98,7.0,Calm,Calm,-,N/A,,Clear,0,2013-06-12 06:15:00
2:35 AM,62.6,62.6,100,29.98,7.0,Calm,Calm,-,N/A,,Clear,0,2013-06-12 06:35:00
2:55 AM,62.6,62.6,100,29.97,5.0,Calm,Calm,-,N/A,,Clear,0,2013-06-12 06:55:00
3:15 AM,62.4,62.4,100,29.97,5.0,Calm,Calm,-,N/A,,Clear,0,2013-06-12 07:15:00
3:35 AM,62.1,62.1,100,29.96,5.0,Calm,Calm,-,N/A,,Clear,0,2013-06-12 07:35:00
3:55 AM,61.7,61.7,100,29.97,5.0,Calm,Calm,-,N/A,,Clear,0,2013-06-12 07:55:00
4:15 AM,61.3,61.3,100,29.97,4.0,Calm,Calm,-,N/A,,Clear,0,2013-06-12 08:15:00
4:35 AM,61.5,61.5,100,29.97,4.0,Calm,Calm,-,N/A,,Clear,0,2013-06-12 08:35:00
4:55 AM,61.3,61.3,100,29.98,5.0,Calm,Calm,-,N/A,,Clear,0,2013-06-12 08:55:00
5:15 AM,61.3,61.3,100,29.99,4.0,Calm,Calm,-,N/A,,Clear,0,2013-06-12 09:15:00
5:35 AM,61.5,61.5,100,29.99,4.0,Calm,Calm,-,N/A,,Clear,0,2013-06-12 09:35:00
5:55 AM,-9999,-9999,N/A,29.99,4.0,Calm,Calm,-,N/A,,Clear,0,2013-06-12 09:55:00
6:15 AM,61.0,61.0,100,30.00,4.0,Calm,Calm,-,N/A,,Clear,0,2013-06-12 10:15:00
6:35 AM,61.7,61.7,100,30.01,4.0,Calm,Calm,-,N/A,,Clear,0,2013-06-12 10:35:00
6:55 AM,62.8,62.8,100,30.01,4.0,Calm,Calm,-,N/A,,Clear,0,2013-06-12 10:55:00
7:15 AM,64.6,64.6,100,30.00,5.0,Calm,Calm,-,N/A,,Clear,0,2013-06-12 11:15:00
7:35 AM,67.1,66.9,99,30.00,10.0,Calm,Calm,-,N/A,,Clear,0,2013-06-12 11:35:00
7:55 AM,68.7,65.5,89,30.00,10.0,Calm,Calm,-,N/A,,Clear,0,2013-06-12 11:55:00
8:15 AM,70.2,65.8,86,30.01,10.0,Calm,Calm,-,N/A,,Clear,0,2013-06-12 12:15:00
8:35 AM,71.6,66.2,83,30.01,10.0,Calm,Calm,-,N/A,,Clear,0,2013-06-12 12:35:00
8:55 AM,73.6,66.2,78,30.01,10.0,Calm,Calm,-,N/A,,Clear,0,2013-06-12 12:55:00
9:15 AM,75.2,66.6,74,30.00,10.0,SSW,4.6,-,N/A,,Clear,210,2013-06-12 13:15:00
9:35 AM,75.7,66.9,74,30.00,10.0,SSW,3.5,-,N/A,,Clear,210,2013-06-12 13:35:00
9:55 AM,76.1,66.9,73,30.01,10.0,Calm,Calm,-,N/A,,Clear,0,2013-06-12 13:55:00
10:15 AM,76.1,68.7,78,30.00,10.0,Calm,Calm,-,N/A,,Clear,0,2013-06-12 14:15:00
10:35 AM,76.8,68.2,75,30.00,10.0,Calm,Calm,-,N/A,,Clear,0,2013-06-12 14:35:00
10:55 AM,79.0,69.1,72,30.01,10.0,West,3.5,-,N/A,,Clear,260,2013-06-12 14:55:00
11:15 AM,80.6,68.5,67,30.01,10.0,West,4.6,-,N/A,,Clear,260,2013-06-12 15:15:00
11:35 AM,81.3,68.0,64,29.99,10.0,SW,3.5,-,N/A,,Clear,220,2013-06-12 15:35:00
11:55 AM,81.9,68.7,64,29.99,10.0,SSW,3.5,-,N/A,,Clear,210,2013-06-12 15:55:00
12:15 PM,82.0,69.1,65,29.98,10.0,South,3.5,-,N/A,,Clear,180,2013-06-12 16:15:00
12:35 PM,82.9,68.7,62,29.98,10.0,South,5.8,-,N/A,,Clear,180,2013-06-12 16:35:00
12:55 PM,84.2,69.1,60,29.98,10.0,Calm,Calm,-,N/A,,Clear,0,2013-06-12 16:55:00
1:15 PM,85.5,70.3,60,29.98,10.0,WSW,3.5,-,N/A,,Clear,240,2013-06-12 17:15:00
1:35 PM,86.0,69.3,57,29.97,10.0,SW,6.9,-,N/A,,Clear,220,2013-06-12 17:35:00
1:55 PM,86.9,70.3,58,29.97,10.0,Calm,Calm,-,N/A,,Clear,0,2013-06-12 17:55:00
2:15 PM,85.5,69.8,59,29.97,10.0,SW,3.5,-,N/A,,Clear,230,2013-06-12 18:15:00
2:35 PM,85.3,71.1,62,29.96,10.0,SW,4.6,-,N/A,,Clear,230,2013-06-12 18:35:00
2:55 PM,85.3,71.2,63,29.96,10.0,Calm,Calm,-,N/A,,Clear,0,2013-06-12 18:55:00
3:15 PM,85.1,72.1,65,29.95,10.0,SW,4.6,-,N/A,,Clear,230,2013-06-12 19:15:00
3:35 PM,87.8,71.6,58,29.95,10.0,SW,4.6,-,N/A,,Clear,220,2013-06-12 19:35:00
3:55 PM,87.8,71.6,58,29.93,10.0,SW,6.9,-,N/A,,Clear,220,2013-06-12 19:55:00
4:15 PM,88.5,72.5,59,29.93,10.0,SW,3.5,-,N/A,,Clear,230,2013-06-12 20:15:00
4:35 PM,88.9,73.0,59,29.92,10.0,SW,4.6,-,N/A,,Clear,220,2013-06-12 20:35:00
4:55 PM,87.8,73.6,63,29.92,10.0,SW,4.6,-,N/A,,Clear,220,2013-06-12 20:55:00
5:15 PM,87.3,72.0,60,29.92,10.0,SW,3.5,-,N/A,,Clear,220,2013-06-12 21:15:00
5:35 PM,87.8,72.7,61,29.91,10.0,South,5.8,-,N/A,,Clear,190,2013-06-12 21:35:00
5:55 PM,88.0,72.9,61,29.91,10.0,SW,4.6,-,N/A,,Clear,220,2013-06-12 21:55:00
6:15 PM,88.2,72.5,60,29.91,10.0,SW,3.5,-,N/A,,Clear,230,2013-06-12 22:15:00
6:35 PM,88.0,72.1,59,29.91,10.0,SW,4.6,-,N/A,,Clear,220,2013-06-12 22:35:00
6:55 PM,86.9,71.4,60,29.91,10.0,WSW,3.5,-,N/A,,Clear,240,2013-06-12 22:55:00
7:15 PM,86.9,71.2,59,29.91,10.0,Calm,Calm,-,N/A,,Clear,0,2013-06-12 23:15:00
7:35 PM,85.6,72.0,63,29.91,10.0,SSW,3.5,-,N/A,,Clear,210,2013-06-12 23:35:00
7:55 PM,84.9,72.5,66,29.91,10.0,Calm,Calm,-,N/A,,Clear,0,2013-06-12 23:55:00
8:15 PM,83.8,72.7,69,29.91,10.0,SW,3.5,-,N/A,,Clear,220,2013-06-13 00:15:00
8:35 PM,83.1,72.5,70,29.91,10.0,SW,3.5,-,N/A,,Clear,220,2013-06-13 00:35:00
8:55 PM,82.8,72.5,71,29.91,10.0,SW,3.5,-,N/A,,Clear,220,2013-06-13 00:55:00
9:15 PM,81.0,72.7,76,29.91,10.0,SSW,3.5,-,N/A,,Clear,200,2013-06-13 01:15:00
9:35 PM,80.4,73.4,79,29.91,10.0,Calm,Calm,-,N/A,,Clear,0,2013-06-13 01:35:00
9:55 PM,79.9,73.6,81,29.91,10.0,Calm,Calm,-,N/A,,Clear,0,2013-06-13 01:55:00
10:15 PM,79.2,73.6,83,29.91,10.0,Calm,Calm,-,N/A,,Clear,0,2013-06-13 02:15:00
10:35 PM,78.8,73.2,83,29.91,10.0,Calm,Calm,-,N/A,,Clear,0,2013-06-13 02:35:00
10:55 PM,78.8,72.5,81,29.91,10.0,Calm,Calm,-,N/A,,Clear,0,2013-06-13 02:55:00
11:15 PM,79.2,72.3,79,29.90,10.0,SW,3.5,-,N/A,,Clear,220,2013-06-13 03:15:00
11:35 PM,79.0,72.0,79,29.90,10.0,Calm,Calm,-,N/A,,Clear,0,2013-06-13 03:35:00
11:55 PM,78.6,72.1,80,29.90,10.0,Calm,Calm,-,N/A,,Clear,0,2013-06-13 03:55:00